(92930) = 2000 RH26 = 2002 CG42

Discovered at Socorro on 2000-09-01 by LINEAR.

Orbit

Orbit type: Main Belt

Note: WebGL enabled browser required.

epoch2024-03-31.0
epoch JD2460400.5
perihelion date2022-02-18.24324
perihelion JD2459628.74324
argument of perihelion (°)165.63251
ascending node (°)198.24848
inclination (°)13.41787
eccentricity0.2390255
perihelion distance (AU)2.0033959
Tisserand w.r.t. Jupiter3.3
ΔV w.r.t. Earth (km/sec)9.8
semimajor axis (AU)2.6326713
mean anomaly (°)178.06941
mean daily motion (°/day)0.23073260
aphelion distance (AU)3.262
period (years)4.27
P-vector [x]0.99558580
P-vector [y]0.04509649
P-vector [z]0.08231179
Q-vector [x]-0.05940405
Q-vector [y]0.98175527
Q-vector [z]0.18063154
absolute magnitude15.4
phase slope0.15
uncertainty0
referenceMPEC 2024-F14
observations used796
oppositions18
arc length (days)8598
first opposition used2000
last opposition used2024
residual rms (arc-secs)0.71
perturbers coarse indicatorM-v
perturbers precise indicator003Ek
first observation date used2000-09-01.0
last observation date used2024-03-17.0
computer nameMPCLINUX
JD of orbit computation2456700.268853
perihelion JD uncertainty (days)6.1195E-05
argument of perihelion uncertainty (°)2.7637E-05
ascending node uncertainty (°)2.3329E-05
inclination uncertainty (°)9.3644E-06
eccentricity uncertainty 8.7076E-08
perihelion distance uncertainty (AU)2.2301E-07
Minimum Orbit Intersection Distances (in AU)
for orbit epoch: 2460400.5, reference: E2024-GF4
Mercury1.65019
Venus1.28363
Earth1.00492
Mars0.60286
Jupiter2.20904
Saturn6.24278
Uranus15.2186
Neptune27.3332

Observations

822 total observations over interval: 2000 09 01.27728 – 2024 03 17.513003
These data are available for download (format description).

Date (UT) J2000 RA J2000 Dec Magn Location Ref
2000 09 01.27728 23 44 04.32 +11 44 55.7 18.4   704 – Lincoln Laboratory ETS, New Mexico MPS 18442
2000 09 01.29170 23 44 03.90 +11 44 47.4 18.6   704 – Lincoln Laboratory ETS, New Mexico MPS 18442
2000 09 01.30620 23 44 03.50 +11 44 39.5 19.0   704 – Lincoln Laboratory ETS, New Mexico MPS 18442
2000 09 01.32038 23 44 03.10 +11 44 31.0 19.2   704 – Lincoln Laboratory ETS, New Mexico MPS 18442
2000 09 01.33676 23 44 02.63 +11 44 21.8 19.1   704 – Lincoln Laboratory ETS, New Mexico MPS 18442
2000 09 03.25704 23 43 11.71 +11 25 40.9 17.7   704 – Lincoln Laboratory ETS, New Mexico MPS 18442
2000 09 03.26970 23 43 11.32 +11 25 32.9 16.9   704 – Lincoln Laboratory ETS, New Mexico MPS 18442
2000 09 03.28234 23 43 10.94 +11 25 25.3 16.8   704 – Lincoln Laboratory ETS, New Mexico MPS 18442
2000 09 03.29504 23 43 10.53 +11 25 18.1 17.1   704 – Lincoln Laboratory ETS, New Mexico MPS 18442
2000 09 03.30776 23 43 10.16 +11 25 09.8 17.2   704 – Lincoln Laboratory ETS, New Mexico MPS 18442
2000 09 05.32226 23 42 12.63 +11 04 09.4 17.2 R 699 – Lowell Observatory-LONEOS MPS 18442
2000 09 05.33604 23 42 12.17 +11 04 00.6   699 – Lowell Observatory-LONEOS MPS 18442
2000 09 05.34986 23 42 11.75 +11 03 51.9   699 – Lowell Observatory-LONEOS MPS 18442
2000 09 05.36372 23 42 11.30 +11 03 42.6   699 – Lowell Observatory-LONEOS MPS 18443
2000 09 21.38945 23 33 23.95 +07 36 06.3 17.7   608 – Haleakala-AMOS MPS 19551
2000 09 21.40023 23 33 23.55 +07 35 56.9 17.9   608 – Haleakala-AMOS MPS 19551
2000 09 21.41065 23 33 23.17 +07 35 47.8 17.7   608 – Haleakala-AMOS MPS 19551
2000 09 23.25706 23 32 22.34 +07 08 37.5 17.2   704 – Lincoln Laboratory ETS, New Mexico MPS 19551
2000 09 23.27179 23 32 21.84 +07 08 24.8 17.8   704 – Lincoln Laboratory ETS, New Mexico MPS 19551
2000 09 23.30157 23 32 20.79 +07 07 58.4 17.8   704 – Lincoln Laboratory ETS, New Mexico MPS 19551
2000 09 23.31629 23 32 20.28 +07 07 44.9 17.6   704 – Lincoln Laboratory ETS, New Mexico MPS 19551
2000 09 26.36194 23 30 44.22 +06 22 20.1 17.5   608 – Haleakala-AMOS MPS 19551
2000 09 26.37277 23 30 43.84 +06 22 10.3 17.5   608 – Haleakala-AMOS MPS 19551
2000 09 26.38316 23 30 43.49 +06 22 00.9 17.5   608 – Haleakala-AMOS MPS 19551
2000 09 27.25122 23 30 17.17 +06 08 56.0 16.9   704 – Lincoln Laboratory ETS, New Mexico MPS 19551
2000 09 27.26633 23 30 16.67 +06 08 42.1 17.3   704 – Lincoln Laboratory ETS, New Mexico MPS 19551
2000 09 27.28140 23 30 16.20 +06 08 28.6 17.2   704 – Lincoln Laboratory ETS, New Mexico MPS 19551
2000 09 27.29648 23 30 15.70 +06 08 15.2 17.9   704 – Lincoln Laboratory ETS, New Mexico MPS 19551
2000 09 27.31156 23 30 15.18 +06 08 01.1 17.4   704 – Lincoln Laboratory ETS, New Mexico MPS 19551
2000 09 30.16487 23 28 53.99 +05 25 04.2 17.4   704 – Lincoln Laboratory ETS, New Mexico MPS 19551
2000 09 30.17957 23 28 53.56 +05 24 50.9 17.8   704 – Lincoln Laboratory ETS, New Mexico MPS 19551
2000 09 30.19426 23 28 53.12 +05 24 37.5 17.9   704 – Lincoln Laboratory ETS, New Mexico MPS 19551
2000 09 30.20897 23 28 52.65 +05 24 24.3 17.9   704 – Lincoln Laboratory ETS, New Mexico MPS 19551
2000 09 30.22365 23 28 52.26 +05 24 10.8 17.8   704 – Lincoln Laboratory ETS, New Mexico MPS 19551
2000 10 01.20653 23 28 26.03 +05 09 24.4 17.1 R 699 – Lowell Observatory-LONEOS MPS 21070
2000 10 01.22582 23 28 25.55 +05 09 09.1   699 – Lowell Observatory-LONEOS MPS 21070
2000 10 01.24513 23 28 24.97 +05 08 50.5   699 – Lowell Observatory-LONEOS MPS 21070
2000 10 01.26450 23 28 24.44 +05 08 33.4   699 – Lowell Observatory-LONEOS MPS 21070
2000 10 03.25598 23 27 34.69 +04 38 46.8 18.4   704 – Lincoln Laboratory ETS, New Mexico MPS 19551
2000 10 03.27150 23 27 34.27 +04 38 33.8 17.6   704 – Lincoln Laboratory ETS, New Mexico MPS 19551
2000 10 03.28733 23 27 33.83 +04 38 19.6 17.8   704 – Lincoln Laboratory ETS, New Mexico MPS 19551
2000 10 03.31343 23 27 33.18 +04 37 56.6 17.3   704 – Lincoln Laboratory ETS, New Mexico MPS 19551
2000 10 03.33088 23 27 32.72 +04 37 40.9 17.3   704 – Lincoln Laboratory ETS, New Mexico MPS 19551
2000 10 24.20421 23 24 43.14 +00 04 36.6 17.8   704 – Lincoln Laboratory ETS, New Mexico MPS 21070
2000 10 24.22154 23 24 43.25 +00 04 24.5 17.4   704 – Lincoln Laboratory ETS, New Mexico MPS 21070
2000 10 24.23674 23 24 43.38 +00 04 15.2 17.6   704 – Lincoln Laboratory ETS, New Mexico MPS 21070
2000 10 24.25489 23 24 43.50 +00 04 03.6 17.7   704 – Lincoln Laboratory ETS, New Mexico MPS 21070
2000 10 25.14368 23 24 52.88 -00 05 11.4 17.8   704 – Lincoln Laboratory ETS, New Mexico MPS 21070
2000 10 25.15725 23 24 52.99 -00 05 20.0 18.1   704 – Lincoln Laboratory ETS, New Mexico MPS 21070
2000 10 25.17085 23 24 53.11 -00 05 28.5 18.1   704 – Lincoln Laboratory ETS, New Mexico MPS 21070
2000 10 25.18500 23 24 53.21 -00 05 37.3 18.2   704 – Lincoln Laboratory ETS, New Mexico MPS 21070
2000 10 25.20076 23 24 53.31 -00 05 46.9 18.4   704 – Lincoln Laboratory ETS, New Mexico MPS 21070
2000 10 29.15943 23 25 51.36 -00 44 01.0 18.3   704 – Lincoln Laboratory ETS, New Mexico MPS 21070
2000 10 29.17414 23 25 51.62 -00 44 09.7 19.2   704 – Lincoln Laboratory ETS, New Mexico MPS 21070
2000 10 29.20352 23 25 52.03 -00 44 24.8 18.2   704 – Lincoln Laboratory ETS, New Mexico MPS 21070
2000 10 29.21821 23 25 52.30 -00 44 33.0 17.7   704 – Lincoln Laboratory ETS, New Mexico MPS 21070
2000 11 02.14588 23 27 18.00 -01 17 35.6 19.0   704 – Lincoln Laboratory ETS, New Mexico MPS 21070
2000 11 02.15959 23 27 18.24 -01 17 43.2 19.5   704 – Lincoln Laboratory ETS, New Mexico MPS 21070
2000 11 02.17330 23 27 18.60 -01 17 49.9 19.0   704 – Lincoln Laboratory ETS, New Mexico MPS 21070
2000 11 02.18703 23 27 18.93 -01 17 56.1 19.3   704 – Lincoln Laboratory ETS, New Mexico MPS 21070
2000 11 02.20076 23 27 19.16 -01 18 01.7 19.6   704 – Lincoln Laboratory ETS, New Mexico MPS 21070
2000 11 18.13877 23 37 30.66 -02 42 45.6 18.4 R 699 – Lowell Observatory-LONEOS MPS 25150
2000 11 18.15434 23 37 31.30 -02 42 49.1   699 – Lowell Observatory-LONEOS MPS 25150
2000 11 18.16995 23 37 32.09 -02 42 53.4   699 – Lowell Observatory-LONEOS MPS 25150
2000 11 18.18561 23 37 32.84 -02 42 54.3   699 – Lowell Observatory-LONEOS MPS 25150
2000 11 21.14060 23 40 08.49 -02 50 19.3 18.7   704 – Lincoln Laboratory ETS, New Mexico MPS 22416
2000 11 21.15644 23 40 09.24 -02 50 20.9 18.4   704 – Lincoln Laboratory ETS, New Mexico MPS 22416
2000 11 21.17152 23 40 10.14 -02 50 22.2 19.0   704 – Lincoln Laboratory ETS, New Mexico MPS 22416
2000 11 21.18653 23 40 10.85 -02 50 24.7 19.2   704 – Lincoln Laboratory ETS, New Mexico MPS 22416
2000 11 25.13662 23 43 57.35 -02 56 33.5 18.5   704 – Lincoln Laboratory ETS, New Mexico MPS 22416
2000 11 25.16704 23 43 59.17 -02 56 35.8 18.7   704 – Lincoln Laboratory ETS, New Mexico MPS 22416
2000 11 25.18228 23 44 00.00 -02 56 36.0 19.2   704 – Lincoln Laboratory ETS, New Mexico MPS 22417
2000 11 25.19748 23 44 00.95 -02 56 37.0 18.8   704 – Lincoln Laboratory ETS, New Mexico MPS 22417
2002 02 07.53906 09 05 41.69 -01 21 37.0 20.6   608 – Haleakala-AMOS MPS 50176
2002 02 07.55006 09 05 41.13 -01 21 32.1 20.6   608 – Haleakala-AMOS MPS 50176
2002 02 07.56084 09 05 40.52 -01 21 29.0 20.4   608 – Haleakala-AMOS MPS 50176
2002 02 08.24564 09 05 05.23 -01 17 14.8 19.7   644 – Palomar Mountain/NEAT MPS 50176
2002 02 08.26651 09 05 04.09 -01 17 07.0 19.5   644 – Palomar Mountain/NEAT MPS 50176
2002 02 08.28753 09 05 02.98 -01 16 59.4 19.5   644 – Palomar Mountain/NEAT MPS 50176
2002 02 15.25413 08 59 10.26 -00 30 32.9 19.4   704 – Lincoln Laboratory ETS, New Mexico MPS 51892
2002 02 15.26882 08 59 09.50 -00 30 25.9 19.4   704 – Lincoln Laboratory ETS, New Mexico MPS 51892
2002 02 15.28372 08 59 08.76 -00 30 20.0 19.5   704 – Lincoln Laboratory ETS, New Mexico MPS 51892
2002 02 15.29808 08 59 08.04 -00 30 13.1 19.8   704 – Lincoln Laboratory ETS, New Mexico MPS 51892
2002 02 15.31243 08 59 07.30 -00 30 08.0 19.7   704 – Lincoln Laboratory ETS, New Mexico MPS 51892
2003 03 07.44708 13 56 06.12 -11 51 02.8 21.2 V 291 – LPL/Spacewatch II MPS 73846
2003 03 07.47073 13 56 05.67 -11 50 56.0 21.2 V 291 – LPL/Spacewatch II MPS 73846
2003 03 07.49462 13 56 05.22 -11 50 49.7 21.4 V 291 – LPL/Spacewatch II MPS 73846
